Regional Weather Roundup
Issued by NWS Albany, NY

Home | Current Version | Previous Version | Text Only | Print | Product List | Glossary On
Versions: 1 2 3 4 5 6 7 8 9 10 11 12 13 14 15 16 17 18 19 20 21 22 23 24 25 26 27 28 29 30 31 32 33 34 35 36 37 38 39 40 41 42 43 44 45 46 47
000
ASUS41 KALY 191910
RWRALY

NEW YORK STATE HOURLY WEATHER ROUNDUP
NATIONAL WEATHER SERVICE ALBANY NY
200 PM EST FRI DEC 19 2014

NOTE: "FAIR" INDICATES FEW OR NO CLOUDS BELOW 12,000 FEET WITH NO
SIGNIFICANT WEATHER AND/OR NO OBSTRUCTIONS TO VISIBILITY.

NYZ032-033-038>043-046>054-057>066-NYZ062>081-192000-
EAST


CITY           SKY/WX    TMP DP  RH WIND       PRES   REMARKS
ALBANY         CLOUDY    30  20  66 W17G24    30.06S WCI  18
GLENS FALLS    SUNNY     32  20  61 N12       30.04R WCI  23
POUGHKEEPSIE   CLOUDY    38  21  50 N8        30.02S WCI  32
MONTGOMERY     CLOUDY    34  21  59 NW14      30.03R WCI  25
WHITE PLAINS   MOSUNNY   36  20  52 W14       30.00R WCI  27
ISLIP          MOSUNNY   40  22  48 NW13G22   29.99S WCI  32
NEW YORK CITY  MOSUNNY   37  21  52 NW13G24   30.04R WCI  29
CENTRAL PARK   SUNNY     36  19  50 NW10G20   30.06R WCI  28
$$

NYZ005>009-017-018-044>046-055-056-192000-
CENTRAL


CITY           SKY/WX    TMP DP  RH WIND       PRES   REMARKS
FULTON         CLOUDY    27  21  78 NW7       30.13S WCI  19
SYRACUSE       FRZ DRZL  26  24  92 W8        30.13S WCI  18
ROME           CLOUDY    26  20  77 W10       30.13R WCI  16
ELMIRA         CLOUDY    29  21  72 NW7       30.11R WCI  22
BINGHAMTON     CLOUDY    23  19  85 NW9       30.04S WCI  13
MONTICELLO     CLOUDY    27  19  74 NW17G23   30.02R WCI  14
$$

NYZ026>034-041>043-192000-
NORTH


CITY           SKY/WX    TMP DP  RH WIND       PRES   REMARKS
WATERTOWN      CLOUDY    26  15  63 NW7       30.14S WCI  18
FORT DRUM      NOT AVBL
MASSENA        CLOUDY    20  13  74 SW8       30.15S WCI  10
SARANAC LAKE   CLOUDY    19  15  84 VRB3      29.99S
PLATTSBURGH    CLOUDY    26  18  71 N9        30.08R WCI  17
$$

NYZ001>004-010>016-019>021-192000-
WEST


CITY           SKY/WX    TMP DP  RH WIND       PRES   REMARKS
NIAGARA FALLS  PTSUNNY   29  21  72 W13       30.17R WCI  19
BUFFALO        PTSUNNY   28  19  69 W12       30.16S WCI  18
DUNKIRK        PTSUNNY   28  20  71 W9        30.20R WCI  19
JAMESTOWN      CLOUDY    23  18  80 NW10      30.12S WCI  12
WELLSVILLE     CLOUDY    24  19  81 NW10      30.08R WCI  14
ROCHESTER      CLOUDY    27  21  78 W12       30.16R WCI  17
PENN YAN       CLOUDY    27  21  78 VRB7      30.12R WCI  19
$$

             KEY
       WCI = WIND CHILL INDEX
       VSB = VISIBILITY
       HX  = HEAT INDEX
$$



USA.gov is the U.S. government's official web portal to all federal, state and local government web resources and services.